WA2GUG Weather Reports


Display with metric or nautical units.
time (UTC)temp
F
wind
direction
speed
MPH
gust
MPH
rain 1hr
in
rain 24hr
in
rain mn
in
humidity
%
barometer
mb
20260502170416 64 38 0.0 3.0 0.00 0.00 0.00 99 1007.2
20260502163916 63 116 0.0 0.0 0.00 0.00 0.00 99 1008.0
20260502163416 62 44 0.0 0.0 0.00 0.00 0.00 99 1007.2
20260502162916 62 134 0.0 1.0 0.00 0.00 0.00 99 1008.0
20260502162416 62 47 0.0 1.0 0.00 0.00 0.00 99 1008.0
20260502161916 63 41 0.0 0.0 0.00 0.00 0.00 99 1008.0
20260502161416 63 87 0.0 0.0 0.00 0.00 0.00 99 1008.0
20260502160916 63 99 0.0 0.0 0.00 0.00 0.00 99 1008.0
20260502160416 62 106 0.0 3.0 0.00 0.00 0.00 99 1008.0
20260502151915 61 7 0.0 1.0 0.00 0.00 0.00 99 1008.0
20260502151415 61 84 0.0 1.0 0.00 0.00 0.00 99 1008.0
20260502150915 59 11 0.0 0.0 0.00 0.00 0.00 99 1008.0
20260502150415 59 86 0.0 0.0 0.00 0.00 0.00 99 1008.0
20260502130415 54 39 0.0 0.0 0.00 0.00 0.00 99 1008.2
20260502123415 47 45 0.0 0.0 0.00 0.00 0.00 99 1008.2
20260502122916 47 52 0.0 1.0 0.00 0.00 0.00 99 1008.2
20260502122415 47 59 0.0 7.0 0.00 0.00 0.00 99 1008.2
20260502121915 48 40 1.0 7.0 0.00 0.00 0.00 99 1009.0
20260502121415 48 70 0.0 5.0 0.00 0.00 0.00 99 1009.0
20260502120915 46 43 1.0 8.0 0.00 0.00 0.00 99 1008.2
20260502120415 46 47 2.0 8.0 0.00 0.00 0.00 99 1008.1
20260502115915 0 43 0.0 2.0 0.00 0.00 0.00 99 1008.0
20260502115415 0 54 0.0 0.0 0.00 0.00 0.00 99 1008.0
20260502114915 0 65 0.0 2.0 0.00 0.00 0.00 99 1008.0
20260502114415 0 47 0.0 2.0 0.00 0.00 0.00 99 1008.0
20260502113915 0 48 0.0 0.0 0.00 0.00 0.00 99 1008.1
20260502113415 0 76 0.0 0.0 0.00 0.00 0.00 99 1008.0
20260502112915 0 75 0.0 0.0 0.00 0.00 0.00 99 1008.1
20260502112415 0 53 0.0 0.0 0.00 0.00 0.00 99 1008.0
20260502111915 0 58 0.0 0.0 0.00 0.00 0.00 99 1008.0
20260502111415 0 53 0.0 0.0 0.00 0.00 0.00 99 1008.0
20260502110915 0 72 0.0 0.0 0.00 0.00 0.00 99 1008.0
20260502110415 0 57 0.0 1.0 0.00 0.00 0.00 99 1008.0
20260502105915 0 61 0.0 2.0 0.00 0.00 0.00 99 1008.0
20260502105415 0 52 0.0 2.0 0.00 0.00 0.00 99 1008.0
20260502104915 0 90 0.0 0.0 0.00 0.00 0.00 99 1008.0
20260502104415 0 225 0.0 0.0 0.00 0.00 0.00 99 1008.0
20260502103915 0 189 0.0 0.0 0.00 0.00 0.00 99 1007.2
20260502103415 0 140 0.0 0.0 0.00 0.00 0.00 99 1008.0
20260502102915 0 135 0.0 0.0 0.00 0.00 0.00 99 1007.2
20260502102415 0 55 0.0 0.0 0.00 0.00 0.00 99 1008.0
20260502101915 0 92 0.0 0.0 0.00 0.00 0.00 99 1007.2
20260502101415 0 152 0.0 0.0 0.00 0.00 0.00 99 1008.0
20260502100915 0 202 0.0 0.0 0.00 0.00 0.00 99 1007.2
20260502100415 0 247 0.0 0.0 0.00 0.00 0.00 99 1008.0
20260502091415 0 251 0.0 0.0 0.00 0.00 0.00 99 1008.0
20260502090915 0 287 0.0 0.0 0.00 0.00 0.00 99 1008.0
20260502090415 0 324 0.0 0.0 0.00 0.00 0.00 99 1008.0
20260502071415 46 175 0.0 0.0 0.00 0.00 0.00 99 1008.0
20260502070915 46 173 0.0 0.0 0.00 0.00 0.00 99 1007.2
20260502070415 46 42 0.0 0.0 0.00 0.00 0.00 99 1008.0
20260502065915 46 294 0.0 0.0 0.00 0.00 0.00 99 1007.2
20260502065415 46 229 0.0 0.0 0.00 0.00 0.00 99 1008.0
20260502064915 46 226 0.0 0.0 0.00 0.00 0.00 99 1007.2
20260502064415 46 262 0.0 0.0 0.00 0.00 0.00 99 1008.0
20260502063915 46 233 0.0 0.0 0.00 0.00 0.00 99 1007.2
20260502063415 46 279 0.0 0.0 0.00 0.00 0.00 99 1008.0
20260502062915 46 165 0.0 0.0 0.00 0.00 0.00 99 1007.2
20260502062415 46 123 0.0 0.0 0.00 0.00 0.00 99 1008.0
20260502061915 46 219 0.0 0.0 0.00 0.00 0.00 99 1007.2
20260502061415 46 237 0.0 0.0 0.00 0.00 0.00 99 1007.2
20260502060915 46 73 0.0 0.0 0.00 0.00 0.00 99 1007.2
20260502060415 46 303 0.0 0.0 0.00 0.00 0.00 99 1007.2
20260502055915 46 151 0.0 0.0 0.00 0.00 0.00 99 1007.2
20260502055415 46 165 0.0 0.0 0.00 0.00 0.00 99 1008.0
20260502054915 46 182 0.0 0.0 0.00 0.00 0.00 99 1008.0
20260502054415 46 208 0.0 0.0 0.00 0.00 0.00 99 1008.0
20260502053915 46 254 0.0 0.0 0.00 0.00 0.00 99 1007.2
20260502053415 46 223 0.0 0.0 0.00 0.00 0.00 99 1008.0
20260502052915 46 235 0.0 0.0 0.00 0.00 0.00 99 1007.2
20260502052415 46 277 0.0 0.0 0.00 0.00 0.00 99 1008.0
20260502051915 46 212 0.0 0.0 0.00 0.00 0.00 99 1007.2
20260502051415 46 178 0.0 0.0 0.00 0.00 0.00 99 1008.0
20260502050915 46 137 0.0 0.0 0.00 0.00 0.00 99 1008.0
20260502050415 46 176 0.0 0.0 0.00 0.00 0.00 99 1008.0
20260502045915 46 209 0.0 0.0 0.00 0.00 0.00 99 1008.0
20260502045415 46 46 0.0 0.0 0.00 0.00 0.00 99 1008.0
20260502044915 46 12 0.0 0.0 0.00 0.00 0.00 99 1008.0
20260502044415 46 138 0.0 0.0 0.00 0.00 0.00 99 1008.0
20260502043915 46 218 0.0 0.0 0.00 0.00 0.00 99 1008.0
20260502043415 46 309 0.0 0.0 0.00 0.00 0.00 99 1008.0
20260502042915 46 166 0.0 0.0 0.00 0.00 0.00 99 1007.2
20260502042415 46 136 0.0 0.0 0.00 0.00 0.00 99 1008.0
20260502041915 46 181 0.0 0.0 0.00 0.00 0.00 99 1008.0
20260502041415 46 225 0.0 0.0 0.00 0.00 0.00 99 1008.0
20260502040915 46 255 0.0 0.0 0.00 0.00 0.00 99 1008.0
20260502040415 46 256 0.0 0.0 0.00 0.00 0.00 99 1008.0
20260502035915 46 255 0.0 0.0 0.00 0.00 0.00 99 1008.0
20260502035415 46 235 0.0 0.0 0.00 0.00 0.00 99 1008.0
20260502034915 46 228 0.0 0.0 0.00 0.00 0.00 99 1008.0
20260502034415 46 181 0.0 0.0 0.00 0.00 0.00 99 1008.0
20260502033915 46 134 0.0 0.0 0.00 0.00 0.00 99 1008.0
20260502033415 46 147 0.0 0.0 0.00 0.00 0.00 99 1008.0
20260502032915 46 167 0.0 0.0 0.00 0.00 0.00 99 1008.0
20260502032415 46 169 0.0 0.0 0.00 0.00 0.00 99 1008.0
20260502031915 46 2 0.0 0.0 0.00 0.00 0.00 99 1008.0
20260502031415 46 36 0.0 0.0 0.00 0.00 0.00 99 1007.2
20260502030915 47 158 0.0 0.0 0.00 0.00 0.00 99 1008.0
20260502030415 47 91 0.0 0.0 0.00 0.00 0.00 99 1007.2
20260502025915 48 164 0.0 0.0 0.00 0.00 0.00 99 1008.0
20260502025415 48 129 0.0 0.0 0.00 0.00 0.00 99 1007.2
20260502024915 49 134 0.0 0.0 0.00 0.00 0.00 99 1007.2
20260502024415 50 78 0.0 0.0 0.00 0.00 0.00 99 1008.0
20260502023915 50 55 0.0 0.0 0.00 0.00 0.00 99 1008.0
20260502023415 51 63 0.0 0.0 0.00 0.00 0.00 99 1008.0
20260502022915 51 67 0.0 0.0 0.00 0.00 0.00 99 1008.0
20260502022415 50 77 0.0 0.0 0.00 0.00 0.00 99 1008.0
20260502021914 50 55 0.0 0.0 0.00 0.00 0.00 99 1008.0
20260502021415 50 71 0.0 0.0 0.00 0.00 0.00 99 1007.2
20260502020915 50 159 0.0 0.0 0.00 0.00 0.00 99 1008.0
20260502020414 50 173 0.0 0.0 0.00 0.00 0.00 99 1007.2
20260502015915 50 123 0.0 0.0 0.00 0.00 0.00 99 1008.0
20260502015415 50 57 0.0 0.0 0.00 0.00 0.00 99 1007.2
20260502014915 51 136 0.0 0.0 0.00 0.00 0.00 99 1008.0
20260502014414 51 171 0.0 0.0 0.00 0.00 0.00 99 1007.2
20260502013914 51 140 0.0 0.0 0.00 0.00 0.00 99 1008.0
20260502013415 51 144 0.0 0.0 0.00 0.00 0.00 99 1007.2
20260502012914 51 130 0.0 0.0 0.00 0.00 0.00 99 1008.0
20260502012415 51 137 0.0 0.0 0.00 0.00 0.00 99 1007.2
20260502011914 51 141 0.0 0.0 0.00 0.00 0.00 99 1008.0
20260502011414 51 139 0.0 0.0 0.00 0.00 0.00 99 1007.2
20260502010914 51 134 0.0 0.0 0.00 0.00 0.00 99 1007.2
20260502010414 50 139 0.0 0.0 0.00 0.00 0.00 99 1007.2
20260502005914 50 146 0.0 0.0 0.00 0.00 0.00 99 1008.0
20260502005414 51 140 0.0 0.0 0.00 0.00 0.00 99 1007.2
20260502004914 51 168 0.0 0.0 0.00 0.00 0.00 99 1008.0
20260502004414 51 137 0.0 0.0 0.00 0.00 0.00 99 1007.2
20260502003914 51 99 0.0 0.0 0.00 0.00 0.00 99 1008.0
20260502003415 52 144 0.0 0.0 0.00 0.00 0.00 99 1007.2
20260502002914 52 83 0.0 0.0 0.00 0.00 0.00 99 1008.0
20260502002414 52 83 0.0 0.0 0.00 0.00 0.00 99 1007.2
20260502001914 53 54 0.0 0.0 0.00 0.00 0.00 99 1008.0
20260502001414 53 40 0.0 0.0 0.00 0.00 0.00 99 1007.2
20260502000914 54 59 0.0 0.0 0.00 0.00 0.00 99 1008.0
20260502000416 54 9 0.0 0.0 0.00 0.00 0.00 99 1008.0
20260501235914 55 353 0.0 0.0 0.00 0.00 0.00 99 1008.0
20260501235414 55 4 0.0 0.0 0.00 0.00 0.00 99 1008.0
20260501234914 55 3 0.0 0.0 0.00 0.00 0.00 99 1008.0
20260501234414 55 47 0.0 5.0 0.00 0.00 0.00 99 1007.2
20260501233914 55 54 1.0 5.0 0.00 0.00 0.00 99 1008.0
20260501233415 55 32 0.0 0.0 0.00 0.00 0.00 99 1007.1
20260501232914 55 5 0.0 3.0 0.00 0.00 0.00 99 1007.0
20260501232414 56 51 0.0 3.0 0.00 0.00 0.00 99 1007.0
20260501231914 56 52 0.0 0.0 0.00 0.00 0.00 99 1007.0
20260501231414 56 51 0.0 3.0 0.00 0.00 0.00 99 1007.0
20260501230914 56 52 0.0 3.0 0.00 0.00 0.00 99 1007.0
20260501230414 57 49 0.0 1.0 0.00 0.00 0.00 99 1007.0
20260501225914 57 60 0.0 1.0 0.00 0.00 0.00 99 1007.0
20260501225414 57 56 0.0 0.0 0.00 0.00 0.00 99 1007.0
20260501224914 57 36 0.0 0.0 0.00 0.00 0.00 99 1006.2
20260501224414 58 48 0.0 0.0 0.00 0.00 0.00 99 1006.2
20260501223914 58 82 0.0 3.0 0.00 0.00 0.00 99 1007.0
20260501223414 59 356 0.0 3.0 0.00 0.00 0.00 99 1007.0
20260501222914 59 349 0.0 0.0 0.00 0.00 0.00 99 1007.0
20260501222414 59 79 0.0 0.0 0.00 0.00 0.00 99 1006.2
20260501221914 59 37 0.0 0.0 0.00 0.00 0.00 99 1007.0
20260501221414 59 83 0.0 0.0 0.00 0.00 0.00 99 1006.2
20260501220914 59 49 0.0 0.0 0.00 0.00 0.00 99 1006.2
20260501220414 59 73 0.0 0.0 0.00 0.00 0.00 99 1006.2
20260501215914 59 49 0.0 0.0 0.00 0.00 0.00 99 1007.0
20260501215414 60 73 0.0 0.0 0.00 0.00 0.00 99 1006.2
20260501214914 60 93 0.0 0.0 0.00 0.00 0.00 99 1006.2
20260501214414 61 90 0.0 0.0 0.00 0.00 0.00 99 1006.2
20260501213914 61 79 0.0 0.0 0.00 0.00 0.00 99 1007.0
20260501213414 62 89 0.0 0.0 0.00 0.00 0.00 99 1007.0
20260501212914 62 173 0.0 0.0 0.00 0.00 0.00 99 1007.0
20260501212414 62 51 0.0 0.0 0.00 0.00 0.00 99 1006.2
20260501211914 63 86 0.0 0.0 0.00 0.00 0.00 99 1006.2
20260501211414 63 49 0.0 0.0 0.00 0.00 0.00 99 1006.2
20260501210914 64 41 0.0 0.0 0.00 0.00 0.00 99 1007.0
20260501210414 63 72 0.0 0.0 0.00 0.00 0.00 99 1006.2
20260501205914 63 88 0.0 0.0 0.00 0.00 0.00 99 1006.2
20260501205414 63 78 0.0 0.0 0.00 0.00 0.00 99 1007.0
20260501204914 62 83 0.0 0.0 0.00 0.00 0.00 99 1007.0
20260501204414 62 89 0.0 0.0 0.00 0.00 0.00 99 1007.0
20260501203914 61 146 0.0 0.0 0.00 0.00 0.00 99 1007.0
20260501203414 62 166 0.0 0.0 0.00 0.00 0.00 99 1007.0
20260501202914 62 83 0.0 0.0 0.00 0.00 0.00 99 1006.2
20260501202414 63 128 0.0 0.0 0.00 0.00 0.00 99 1006.2
20260501201914 63 255 0.0 0.0 0.00 0.00 0.00 99 1007.0
20260501201414 64 274 0.0 0.0 0.00 0.00 0.00 99 1006.2
20260501200914 64 136 0.0 0.0 0.00 0.00 0.00 99 1006.2
20260501200414 64 49 0.0 0.0 0.00 0.00 0.00 99 1007.0
20260501195414 65 93 0.0 0.0 0.00 0.00 0.00 99 1007.0
20260501194914 67 175 0.0 0.0 0.00 0.00 0.00 99 1007.0
20260501194414 71 96 0.0 2.0 0.00 0.00 0.00 99 1006.2
20260501193914 73 36 0.0 3.0 0.00 0.00 0.00 99 1007.0
20260501193414 74 40 0.0 3.0 0.00 0.00 0.00 99 1006.2
20260501192414 66 39 0.0 4.0 0.00 0.00 0.00 99 1006.2
20260501191914 66 40 0.0 4.0 0.00 0.00 0.00 99 1007.0
20260501191414 68 47 0.0 0.0 0.00 0.00 0.00 99 1006.2
20260501185914 70 95 0.0 0.0 0.00 0.00 0.00 99 1006.2
20260501185414 68 86 0.0 0.0 0.00 0.00 0.00 99 1007.0
20260501184914 72 57 0.0 0.0 0.00 0.00 0.00 99 1007.0
20260501184414 76 58 0.0 0.0 0.00 0.00 0.00 99 1007.0
20260501183914 77 41 0.0 0.0 0.00 0.00 0.00 99 1006.2
20260501183414 76 2 0.0 0.0 0.00 0.00 0.00 99 1007.0
20260501182914 76 358 0.0 1.0 0.00 0.00 0.00 99 1007.0
20260501182414 76 84 0.0 1.0 0.00 0.00 0.00 99 1007.0
20260501181914 74 75 0.0 1.0 0.00 0.00 0.00 99 1007.0
20260501181414 71 39 0.0 1.0 0.00 0.00 0.00 99 1007.0
20260501180914 68 99 0.0 1.0 0.00 0.00 0.00 99 1007.0
20260501180414 66 80 0.0 0.0 0.00 0.00 0.00 99 1007.0
20260501175914 68 39 0.0 1.0 0.00 0.00 0.00 99 1007.0
20260501175414 69 82 0.0 1.0 0.00 0.00 0.00 99 1007.0
20260501174914 67 4 0.0 0.0 0.00 0.00 0.00 99 1007.0
20260501174414 67 127 0.0 0.0 0.00 0.00 0.00 99 1007.0
20260501173914 69 1 0.0 0.0 0.00 0.00 0.00 99 1007.0